This is the latest recevied weather packets stored in our database for station/object SP9KB-13. If no packets are shown the sender has not sent any weather packets the latest 10 day(s).
| Time | Temp. | Humidity | Pressure | Rain* | Wind** | Luminosity | Snow |
|---|---|---|---|---|---|---|---|
| 1778068750 | 23.89° C | 37% | 990.9 hPa | 0 mm | - | - | - |
| 1778068450 | 25° C | 36% | 991.1 hPa | 0 mm | - | - | - |
| 1778068149 | 23.89° C | 37% | 991 hPa | 0 mm | - | - | - |
| 1778067849 | 24.44° C | 37% | 990.9 hPa | 0 mm | - | - | - |
| 1778067548 | 24.44° C | 37% | 991.2 hPa | 0 mm | - | - | - |
| 1778067247 | 23.33° C | 37% | 991 hPa | 0 mm | - | - | - |
| 1778066947 | 23.33° C | 36% | 991.2 hPa | 0 mm | - | - | - |
| 1778066646 | 23.89° C | 38% | 991.1 hPa | 0 mm | - | - | - |
| 1778066346 | 23.89° C | 38% | 990.9 hPa | 0 mm | - | - | - |
| 1778066045 | 23.33° C | 38% | 991 hPa | 0 mm | - | - | - |
| 1778065744 | 23.89° C | 38% | 990.9 hPa | 0 mm | - | - | - |
| 1778065444 | 24.44° C | 38% | 990.8 hPa | 0 mm | - | - | - |
| 1778065143 | 23.33° C | 39% | 990.9 hPa | 0 mm | - | - | - |
| 1778064842 | 23.89° C | 38% | 991.2 hPa | 0 mm | - | - | - |
| 1778064542 | 23.89° C | 39% | 991.1 hPa | 0 mm | - | - | - |
| 1778064241 | 23.33° C | 41% | 990.9 hPa | 0 mm | - | - | - |
| 1778063941 | 23.33° C | 43% | 990.9 hPa | 0 mm | - | - | - |
| 1778063640 | 23.89° C | 43% | 991.1 hPa | 0 mm | - | - | - |
| 1778063340 | 23.33° C | 43% | 990.9 hPa | 0 mm | - | - | - |
| 1778063039 | 23.33° C | 43% | 990.9 hPa | 0 mm | - | - | - |
| 1778062738 | 22.78° C | 43% | 991.1 hPa | 0 mm | - | - | - |
| 1778062438 | 22.22° C | 46% | 990.9 hPa | 0 mm | - | - | - |
| 1778062138 | 22.22° C | 48% | 991.2 hPa | 0 mm | - | - | - |
| 1778061837 | 22.22° C | 48% | 991.3 hPa | 0 mm | - | - | - |
| 1778061536 | 21.67° C | 48% | 991.3 hPa | 0 mm | - | - | - |
* Rain latest hour (hover to see other rain measurements)
** Current wind speed in m/s (hover to see current wind gust speed)